Location: Alafon
(8.4500°N, 4.2333°E)
Time: 01:31:28
(UTC+00:00)

Cosmos 2322 - Pass Details

Date: 05 July 2020
Orbit: 841 x 854 km, 71.0° (Epoch: 06 August)

Event Time Altitude Azimuth Distance (km) Brightness Sun altitude
Exits shadow 20:13:38 65° 229° (SW) 928 3.8 -29.0°
Maximum altitude 20:14:22 76° 285° (WNW) 878 3.7 -29.2°
Drops below altitude 10° 20:20:03 10° 11° (NNE) 2,475 6.3 -30.4°
Sets 20:22:30 0° 13° (NNE) 3,410 7.1 -30.9°
